Location: Peach Mountain Observatory
(42.3967°N, 83.9367°W)
Time: 18:45:47
(UTC-05:00)

Envisat - Visible Passes

Search period start: 27 January 2021 00:00
Search period end: 06 February 2021 00:00
Orbit: 764 x 766 km, 98.1° (Epoch: 27 January)

Date Brightness Start Highest point End Pass type
(mag) Time Alt. Az. Time Alt. Az. Time Alt. Az.
27 Jan 5.9 05:05:34 10° NE 05:08:24 15° E 05:11:14 10° SE visible
27 Jan 2.9 06:42:50 10° N 06:47:53 66° WNW 06:52:54 10° SSW visible
28 Jan 3.7 06:06:04 10° NNE 06:11:05 57° E 06:16:03 10° S visible
28 Jan 6.3 19:03:38 10° WSW 19:05:40 12° W 19:07:42 10° WNW visible
29 Jan 5.2 05:29:51 10° NE 05:34:04 26° E 05:38:15 10° SSE visible
29 Jan 3.5 07:08:29 10° N 07:13:10 38° WNW 07:17:50 10° SW visible
29 Jan 5.4 18:24:10 10° SSW 18:28:28 27° W 18:32:47 10° NW visible
30 Jan 6.2 04:55:13 10° ENE 04:56:51 11° E 04:58:29 10° ESE visible
30 Jan 2.9 06:31:23 10° NNE 06:36:30 83° WNW 06:41:34 10° SSW visible
31 Jan 4.1 05:54:45 10° NNE 05:59:38 45° E 06:04:28 10° S visible
31 Jan 6.1 18:51:05 10° SW 18:54:06 16° W 18:57:10 10° NW visible
01 Feb 5.5 05:18:47 10° NE 05:22:34 21° E 05:26:18 10° SE visible
01 Feb 3.2 06:56:56 10° N 07:01:49 48° WNW 07:06:40 10° SW visible
01 Feb 5.0 18:12:23 10° SSW 18:16:58 34° W 18:21:36 10° NNW visible
02 Feb 3.1 06:19:58 10° NNE 06:25:05 79° ESE 06:30:10 10° S visible
03 Feb 4.6 05:43:30 10° NNE 05:48:09 35° E 05:52:47 10° SSE visible
03 Feb 5.9 18:38:53 10° SW 18:42:35 20° W 18:46:17 10° NW visible
04 Feb 5.8 05:07:54 10° NE 05:11:01 16° E 05:14:08 10° SE visible
04 Feb 3.0 06:45:26 10° N 06:50:27 61° WNW 06:55:26 10° SSW visible
05 Feb 3.5 06:08:36 10° NNE 06:13:39 62° E 06:18:40 10° S visible
05 Feb 6.5 19:06:50 10° WSW 19:08:17 11° W 19:09:44 10° WNW visible
